Regional Weather Roundup
Issued by NWS

Home | Current Version | Previous Version | Text Only | Print | Product List | Glossary Off
Versions: 1 2 3 4 5 6 7 8 9 10 11 12 13 14 15 16 17 18 19 20 21 22 23 24 25 26 27 28 29 30 31 32 33 34 35 36 37 38 39 40 41 42 43 44 45 46 47 48 49 50

000
ASUS43 KLMK 192210
RWRKY
KENTUCKY REGIONAL WEATHER ROUNDUP
NATIONAL WEATHER SERVICE LOUISVILLE KY
600 PM EDT WED JUL 19 2017

NOTE "FAIR" INDICATES FEW OR NO CLOUDS BELOW 12,000 FEET
WITH NO SIGNIFICANT WEATHER AND/OR OBSTRUCTIONS TO VISIBILITY.

KYZ001>023-026-027-061>063-070>075-192300-
WESTERN AND SOUTH CENTRAL KENTUCKY

CITY           SKY/WX    TMP DP  RH WIND       PRES   REMARKS
PADUCAH        SUNNY     92  73  53 S3        30.07F HX 100
HENDERSON      NOT AVBL
OWENSBORO      CLOUDY    91  73  55 CALM      30.08F HX  99
HOPKINSVILLE   LGT RAIN  88  77  70 NE5       30.08F HX 100
BOWLING GREEN  SUNNY     91  73  55 W9        30.09F HX  99
GLASGOW        CLOUDY    90  67  46 N5        30.10S HX  93
$$

KYZ024-025-028>034-038-045-046-053-192300-
NORTH CENTRAL KENTUCKY

CITY           SKY/WX    TMP DP  RH WIND       PRES   REMARKS
LOUISVILLE/SDF PTSUNNY   91  66  43 NE9       30.07F HX  93
LOUISVILLE/LOU SUNNY     90  67  46 N9        30.09S HX  93
FORT KNOX      PTSUNNY   88  71  57 W7        30.09S HX  94
$$

KYZ035>037-039>044-047>052-055>060-089>105-192300-
NORTHEAST KENTUCKY

CITY           SKY/WX    TMP DP  RH WIND       PRES   REMARKS
LEXINGTON      SUNNY     89  64  43 NW6       30.10F HX  90
COVINGTON      MOSUNNY   88  69  53 W9        30.10R HX  92
FRANKFORT      SUNNY     89  65  44 VRB5      30.09F HX  91
$$

KYZ054-064>069-076>088-106>120-192300-
SOUTHEAST KENTUCKY

CITY           SKY/WX    TMP DP  RH WIND       PRES   REMARKS
JACKSON        MOSUNNY   88  69  53 VRB5      30.11F HX  92
LONDON         SUNNY     89  64  43 W8        30.11S HX  90
SOMERSET       SUNNY     88  63  42 N7        30.11F
MIDDLESBORO    SUNNY     90  68  47 W5        30.10F HX  94
MONTICELLO     CLEAR     87  69  54 NW8       30.12F HX  91
$$





USA.gov is the U.S. government's official web portal to all federal, state and local government web resources and services.